Location: Lombard
(41.8800°N, 88.0080°W)
Time: 20:06:39
(UTC-05:00)

ZACube-1 - Pass Details

Date: 26 May 2022
Orbit: 581 x 662 km, 97.6° (Epoch: 29 June)

Event Time Altitude Azimuth Distance (km) Brightness Sun altitude
Rises 04:11:47 0° 23° (NNE) 2,810 ? -11.5°
Reaches altitude 10° 04:14:10 10° 34° (NE) 1,906 ? -11.2°
Maximum altitude 04:17:48 29° 96° (E) 1,071 ? -10.7°
Drops below altitude 10° 04:21:26 10° 158° (SSE) 1,908 ? -10.1°
Sets 04:23:48 0° 169° (S) 2,812 ? -9.8°
